Regional Weather Roundup
Issued by NWS Charleston, SC

Current Version | Previous Version | Graphics & Text | Print | Product List | Glossary On
Versions: 1 2 3 4 5 6 7 8 9 10 11 12 13 14 15 16 17 18 19 20 21 22 23 24 25 26 27 28 29 30 31 32 33 34 35 36 37 38 39 40 41 42 43 44 45 46 47 48 49 50
000 ASUS42 KCHS 240810 RWRCHS REGIONAL WEATHER ROUNDUP NATIONAL WEATHER SERVICE CHARLESTON SC 300 AM EST MON NOV 24 2014 NOTE: "FAIR" INDICATES FEW OR NO CLOUDS BELOW 12,000 FEET WITH NO SIGNIFICANT WEATHER AND/OR OBSTRUCTIONS TO VISIBILITY. NOT ALL STATIONS ARE QUALITY CONTROLLED BY THE NATIONAL WEATHER SERVICE. USE DATA WITH CAUTION...ESPECIALLY DEWPOINT OBSERVATIONS. SCZ027-030-031-034>040-042>050-240900- ...SOUTHEAST SOUTH CAROLINA... CITY SKY/WX TMP DP RH WIND PRES REMARKS N CHARLESTON MOCLDY 66 64 93 S8 29.84R WATERFRONT PRK N/A 64 N/A N/A SW6 N/A MOUNT PLEASANT CLOUDY 66 66 100 S9 29.83S JOHNS ISLAND PTSUNNY 64 64 100 SW6 29.85R FOG PINOPOLIS N/A 70 64 83 S5 29.74R MONCKS CORNER CLOUDY 68 68 100 S6 29.82S SUMMERVILLE CLOUDY 66 66 100 S3 29.83S BEAUFORT MCAS CLOUDY 66 65 96 S7 29.84S BEAUFORT ARPT CLOUDY 64 64 100 CALM 29.83S HILTON HEAD IS MOCLDY 66 66 100 S7 29.85S FOG WALTERBORO CLOUDY 68 N/A N/A SW6 29.83S ALLENDALE CLOUDY 66 66 100 CALM 29.81S FOG ...SOUTHERN MIDLANDS AND PEE DEE... CITY SKY/WX TMP DP RH WIND PRES REMARKS GEORGETOWN NOT AVBL KINGSTREE NOT AVBL ORANGEBURG CLOUDY 68 64 87 SW12 29.80S BARNWELL CLOUDY 66 66 100 SW7 29.81F AIKEN CLOUDY 64 64 100 SW9 29.83S MANNING NOT AVBL COLUMBIA PTCLDY 66 61 84 SW10 29.79R SUMTER CLOUDY 67 65 92 SW9 29.78R FLORENCE CLOUDY 64 62 93 S5 29.80R MYRTLE BEACH CLOUDY 66 63 88 S8 N/A N MYRTLE BEACH CLOUDY 63 61 93 SW9 29.84R $$ GAZ063-065-086>088-099>101-113>116-118-119-134>141-150-240900- ...SOUTHEAST GEORGIA... CITY SKY/WX TMP DP RH WIND PRES REMARKS SAVANNAH ARPT CLOUDY 68 65 90 S6 29.85R HUNTER AAF PTCLDY 66 66 100 S6 29.83R FORT STEWART CLOUDY 67 65 94 VRB2 29.83S STATESBORO NOT AVBL SYLVANIA CLOUDY 66 65 97 SW5 29.83S CLAXTON CLOUDY 68 68 100 CALM 29.83F ...CSRA...CENTRAL AND FAR SOUTHEAST GEORGIA... CITY SKY/WX TMP DP RH WIND PRES REMARKS THOMSON MOCLDY 64 64 99 S5 29.84S AUGUSTA-BUSH CLOUDY 67 62 84 SW9G17 29.80S AUGUSTA-DANIEL PTCLDY 65 61 87 SW6 29.81S SWAINSBORO DRIZZLE N/A N/A N/A SW5 29.83R VIDALIA CLOUDY 64 64 100 SW3 29.82F HAZLEHURST CLOUDY 67 67 100 CALM 29.82S ALMA CLOUDY 68 67 96 S9 29.83S FOG WAYCROSS CLOUDY 74 73 97 SW10G17 29.84R JESUP CLOUDY 72 70 94 SW3 29.85S BAXLEY CLOUDY 68 68 100 SW3 29.83S FOG BRUNSWICK CLOUDY 70 68 94 S7 29.87R SAINT SIMONS CLOUDY 65 64 97 SE6 29.87R $$ SCZ027-028-034-036>038-045-046-048>050-GAZ119-141-240900- ...LAKE AND SUPPLEMENTAL COASTAL OBSERVATIONS... STATION/POSITION TIME TEMP WIND PRES WAVE SWELL AIR SEA DIR/SP/G HT/PER HT/PER/DIR (UTC) (F) (DEG/KT/KT) (MB) (FT/S) (FT/S/D) UPR LAKE MARION NOT AVBL WINYAH BAY 0700 67 240/ 8 1010.0S LAKE MURRAY 0700 65 240/ 9/ 13 1008.1R ACE BASIN NERRS 0700 64 CALM 1010.0S FORT PULASKI 0800 63 190/ 5/ 9 1010.8S SAPELO ISLAND NOT AVBL $$ ANZ835-935-AMZ111-154-330-350-352-354-370-450-454-472-240900- ...C-MAN AND BUOY OBSERVATIONS... STATION/POSITION TIME TEMP WIND PRES WAVE SWELL AIR SEA DIR/SP/G HT/PER HT/PER/DIR (UTC) (F) (DEG/KT/KT) (MB) (FT/S) (FT/S/D) FOLLY BEACH CMAN 0700 64 220/ 9/ 11 1010.9R BUOY 41004 0800 76 74 210/ 21/ 27 1009.8F 11/ 9 8/ 9 BUOY 41008 0800 67 64 180/ 12/ 14 1011.0S 5/ 9 3/ 90/ 9 CAPERS NEARSHORE 0700 60 250/ 8/ 10 N/A FRIPP NEARSHORE NOT AVBL STATION/POSITION TIME TEMP WIND PRES WAVE SWELL AIR SEA DIR/SP/G HT/PER HT/PER/DIR (UTC) (F) (DEG/KT/KT) (MB) (FT/S) (FT/S/D) 5E ST. MARYS GA 0800 61 N/A 5/ 9 2/110/11 FRYING PAN BUOY 0800 71 67 200/ 10/ 12 1011.8R 11/ 9 10/130/ 9 BUOY 41025 0800 70 150/ 31/ 41 1008.8F 12/ 9 2/150/11 CAPE LOOKOUT NC 0700 67 140/ 27/ 30 1009.7F BUOY 41002 0717 74 73 180/ 25/ 31 1015.5R 10/ 8 5/140/14 BUOY 41010 0800 78 78 170/ 19/ 23 1014.2S 8/ 8 5/130/10 ST AUGUSTINE FL 0800 70 220/ 6/ 7 1013.0R $$

USA.gov is the U.S. government's official web portal to all federal, state and local government web resources and services.